Simultaneous Nadir Overpasses (SNOs) Predictions

Prediction of SNOs between NOAA-19 and NPP Satellite Orbit:

Table of predicted SNOs for the next 14.0 days since TLE Epoch: 12/4/2016
Index Date (NOAA-19) Time (NOAA-19) Lat,Lon (NOAA-19) SZA (NOAA-19 ) Date (NPP) Time (NPP) Lat,Lon (NPP) SZA (NPP ) Distance(km) Time Diff (sec)
1 12/12/2016 03:57:42 80.93, 68.66 107.12 12/12/2016 03:58:46 80.93, 68.78 107.07 2.23 64
2 12/12/2016 04:48:44 -80.93,-124.03 72.89 12/12/2016 04:49:31 -80.93,-123.86 72.93 2.99 47
3 12/12/2016 05:39:43 80.94, 43.45 107.09 12/12/2016 05:40:16 80.93, 43.37 107.09 1.38 33
4 12/12/2016 06:30:45 -80.94,-149.23 72.92 12/12/2016 06:31:01 -80.93,-149.27 72.92 0.85 16
5 12/12/2016 07:21:45 80.93, 17.87 107.11 12/12/2016 07:21:46 80.94, 17.96 107.10 1.61 1
6 12/12/2016
